This demonstration page uses our WeatherBlox Daily Observations layout. Learn more.

Hourly Observations for June 11, 2020

Temp ( °F °C ) Dew Point ( °F °C ) Humidity (%) Winds ( mph kmh ) Pressure ( in mb ) Visibility ( mi km ) Precip ( " mm )
12:15 am 00:15 Clear 58 14.2 48 8.9 71 71 Calm 30.12 1020 10 16.0934 0 0
12:35 am 00:35 Clear 58 14.3 48 8.8 70 70 S 3 6 30.13 1020 10 16.0934 0 0
12:55 am 00:55 Clear 59 14.9 47 8.2 64 64 S 5 7 30.12 1020 10 16.0934 0 0
1:15 am 01:15 Clear 59 14.9 47 8.3 65 65 S 3 6 30.12 1020 10 16.0934 0 0
1:35 am 01:35 Clear 59 15 47 8.2 64 64 SSW 6 9 30.12 1020 10 16.0934 0 0
1:55 am 01:55 Clear 59 15.1 47 8.5 65 65 S 6 9 30.12 1020 10 16.0934 0 0
2:15 am 02:15 Clear 58 14.3 47 8.6 69 69 S 5 7 30.13 1020 10 16.0934 0 0
2:35 am 02:35 Clear 58 14.4 47 8.6 68 68 S 6 9 30.12 1020 10 16.0934 0 0
2:55 am 02:55 Clear 58 14.2 47 8.5 69 69 SSW 7 11 30.13 1020 10 16.0934 0 0
3:15 am 03:15 Clear 58 14.5 48 8.7 68 68 SSW 7 11 30.13 1020 10 16.0934 0 0
3:35 am 03:35 Clear 58 14.2 48 8.7 70 70 SSW 6 9 30.13 1020 10 16.0934 0 0
3:55 am 03:55 Clear 57 13.9 48 8.7 71 71 SSW 7 11 30.14 1021 10 16.0934 0 0
4:15 am 04:15 Clear 57 14 48 8.8 71 71 SW 7 11 30.14 1021 10 16.0934 0 0
4:35 am 04:35 Clear 57 14 48 8.7 71 71 SW 7 11 30.14 1021 10 16.0934 0 0
4:55 am 04:55 Clear 57 14 47 8.6 70 70 SW 7 11 30.15 1021 10 16.0934 0 0
5:15 am 05:15 Clear 58 14.6 47 8.5 67 67 SW 8 13 30.15 1021 10 16.0934 0 0
5:35 am 05:35 Clear 58 14.6 47 8.5 67 67 SW 7 11 30.15 1021 10 16.0934 0 0
5:55 am 05:55 Clear 58 14.2 47 8.3 68 68 SW 6 9 30.17 1022 10 16.0934 0 0
6:15 am 06:15 Sunny 57 14 47 8.5 70 70 SW 6 9 30.18 1022 10 16.0934 0 0
6:35 am 06:35 Sunny 57 14.1 47 8.3 68 68 SSW 3 6 30.18 1022 10 16.0934 0 0
6:55 am 06:55 Sunny 58 14.3 47 8.5 68 68 SSW 6 9 30.18 1022 10 16.0934 0 0
7:15 am 07:15 Sunny 60 15.5 48 8.7 64 64 SSW 7 11 30.17 1022 10 16.0934 0 0
7:35 am 07:35 Sunny 61 16.2 48 9.1 63 63 SSW 6 9 30.17 1022 10 16.0934 0 0
7:55 am 07:55 Sunny 63 17.3 50 10.1 63 63 SSW 8 13 30.16 1021 10 16.0934 0 0
8:15 am 08:15 Sunny 66 18.7 50 9.9 57 57 SSW 7 11 30.15 1021 10 16.0934 0 0
8:35 am 08:35 Sunny 67 19.7 50 9.9 53 53 SSW 12 19 30.14 1021 10 16.0934 0 0
8:55 am 08:55 Sunny 69 20.5 50 9.8 50 50 SSW 15 24 30.14 1021 10 16.0934 0 0
9:15 am 09:15 Sunny 70 21.1 51 10.4 51 51 SSW 14 22 30.14 1021 10 16.0934 0 0
9:35 am 09:35 Sunny 71 21.9 52 10.9 50 50 SW 10 17 30.13 1020 10 16.0934 0 0
9:55 am 09:55 Sunny 73 22.7 51 10.7 47 47 SW 10 17 30.12 1020 10 16.0934 0 0
10:15 am 10:15 Sunny 74 23.5 51 10.3 43 43 SW 10 17 30.12 1020 10 16.0934 0 0
10:35 am 10:35 Sunny 76 24.2 50 10.1 41 41 WSW 9 15 30.11 1020 10 16.0934 0 0
10:55 am 10:55 Sunny 77 25.1 49 9.7 38 38 W 15 24 30.1 1019 10 16.0934 0 0
11:15 am 11:15 Sunny 79 26 49 9.7 36 36 W 17 28 30.1 1019 10 16.0934 0 0
11:35 am 11:35 Sunny 79 25.9 48 9.1 35 35 W 15 24 30.1 1019 10 16.0934 0 0
11:55 am 11:55 Sunny 79 26.1 50 9.8 36 36 W 8 13 30.1 1019 10 16.0934 0 0
12:15 pm 12:15 Sunny 79 26.2 49 9.5 35 35 W 10 17 30.1 1019 10 16.0934 0 0
12:35 pm 12:35 Sunny 80 26.8 49 9.5 34 34 WSW 9 15 30.09 1019 10 16.0934 0 0
12:55 pm 12:55 Sunny 81 27.2 49 9.6 33 33 W 12 19 30.09 1019 10 16.0934 0 0
1:15 pm 13:15 Sunny 82 28 51 10.8 34 34 W 12 19 30.08 1019 10 16.0934 0 0
1:35 pm 13:35 Sunny 83 28.2 50 10.2 33 33 W 7 11 30.07 1018 10 16.0934 0 0
1:55 pm 13:55 Sunny 83 28.6 51 10.3 32 32 WNW 7 11 30.07 1018 10 16.0934 0 0
2:15 pm 14:15 Sunny 84 28.9 50 10 31 31 WSW 7 11 30.06 1018 10 16.0934 0 0
2:35 pm 14:35 Sunny 84 29.1 50 10 30 30 WNW 6 9 30.05 1018 10 16.0934 0 0
2:55 pm 14:55 Sunny 85 29.2 50 10 30 30 WNW 6 9 30.05 1018 10 16.0934 0 0
3:15 pm 15:15 Sunny 85 29.5 52 11.1 32 32 W 6 9 30.04 1017 10 16.0934 0 0
3:35 pm 15:35 Sunny 85 29.6 51 10.3 30 30 W 8 13 30.04 1017 10 16.0934 0 0
3:55 pm 15:55 Sunny 86 30.1 50 10.2 29 29 WSW 6 9 30.04 1017 10 16.0934 0 0
4:15 pm 16:15 Sunny 86 30.1 50 10.1 29 29 SSW 3 6 30.04 1017 10 16.0934 0 0
4:35 pm 16:35 Sunny 87 30.4 51 10.3 29 29 SW 5 7 30.02 1017 10 16.0934 0 0
4:55 pm 16:55 Sunny 87 30.3 47 8.1 25 25 Calm 30.02 1017 10 16.0934 0 0
5:15 pm 17:15 Sunny 87 30.5 49 9.2 27 27 Calm 30.02 1017 10 16.0934 0 0
5:35 pm 17:35 Sunny 87 30.4 49 9.3 27 27 SSE 5 7 30.02 1017 10 16.0934 0 0
5:55 pm 17:55 Sunny 86 30.2 49 9.3 27 27 Calm 30.02 1017 10 16.0934 0 0
6:15 pm 18:15 Sunny 86 30.2 49 9.2 27 27 Calm 30.02 1017 10 16.0934 0 0
6:35 pm 18:35 Sunny 86 30.2 51 10.3 29 29 ESE 5 7 30.02 1017 10 16.0934 0 0
6:55 pm 18:55 Sunny 85 29.2 53 11.7 34 34 NE 12 19 30.03 1017 10 16.0934 0 0
7:15 pm 19:15 Sunny 84 28.8 52 11.2 34 34 NE 12 19 30.04 1017 7 11.26538 0 0
7:35 pm 19:35 Sunny 83 28.5 53 11.7 35 35 ENE 12 19 30.05 1018 10 16.0934 0 0
7:55 pm 19:55 Sunny 82 27.5 53 11.7 37 37 ENE 9 15 30.06 1018 10 16.0934 0 0
8:15 pm 20:15 Sunny 80 26.5 53 11.8 40 40 ENE 8 13 30.07 1018 10 16.0934 0 0
8:35 pm 20:35 Sunny 77 25 54 12.4 46 46 ENE 8 13 30.09 1019 10 16.0934 0 0
8:55 pm 20:55 Sunny 75 23.7 55 12.9 51 51 ENE 8 13 30.1 1019 10 16.0934 0 0
9:15 pm 21:15 Clear 72 22.3 56 13.2 56 56 ENE 7 11 30.12 1020 10 16.0934 0 0
9:35 pm 21:35 Clear 71 21.4 56 13.5 61 61 NE 7 11 30.13 1020 10 16.0934 0 0
9:55 pm 21:55 Clear 70 21.2 55 12.8 59 59 E 8 13 30.14 1021 10 16.0934 0 0
10:15 pm 22:15 Clear 70 21 55 13 60 60 ENE 8 13 30.15 1021 10 16.0934 0 0
10:35 pm 22:35 Clear 68 20 56 13.2 65 65 ENE 9 15 30.18 1022 7 11.26538 0 0
10:55 pm 22:55 Clear 67 19.6 55 13 66 66 ENE 8 13 30.19 1022 10 16.0934 0 0
11:15 pm 23:15 Clear 67 19.3 55 13 67 67 ENE 8 13 30.19 1022 10 16.0934 0 0
11:35 pm 23:35 Clear 66 19 55 12.7 67 67 ENE 8 13 30.19 1023 10 16.0934 0 0
11:55 pm 23:55 Clear 65 18.6 55 12.5 68 68 NE 7 11 30.2 1023 10 16.0934 0 0

Powered by AerisWeather